Погода в Юлове

Россия / Ульяновская область     53°57′48″N   46°28′40″E
темп.,
°C
ветер,
м/с
пор.,
м/с
влажн.,
%
обл.,
%
осадки,
мм/ч
давл.,
гПа
погр.,
м
24 мая, вт
вт2401:000ююз23935 0.0 100548
04:000ююз3129141 0.0 1005280
07:00+4юз412805 0.1 1004409
10:00+10з475935 0.1 10041235
13:00+11зюз595899 0.7 10041608
16:00+12зсз51047100 1.1 10041947
19:00+7ссв2579100 0.1 1007324
22:00+4зсз2395100 0.7 1008257
25 мая, ср
ср2501:00+4юз0398100 1.9 1007455
04:00+2сз3699100 4.1 1009324
07:00+2сз3698100 0.5 1010325
10:00+4сз458393 0.9 10111001
13:00+7сз4565100 0.6 10121540
16:00+8зсз4659100 0.9 10121357
19:00+7зсз377398 0.6 1013924
22:00+2зюз24925 0.6 101469
26 мая, чт
чт2601:00+1зюз23945 0.0 101558
04:000юз23955 0.0 101546
07:00+4юз25795 0.0 1015215
10:00+9юз455427 0.0 10141483
13:00+10зюз476099 0.0 10131300
16:00+11юз4968100 0.1 10121391
19:00+13ююз59695 0.0 10111116
22:00+10ююз51482100 0.1 1009538
27 мая, пт
пт2701:00+10ю41392100 0.3 1008466
04:00+9ю61595100 1.1 1005887
07:00+10ююз71397100 2.4 10021175
10:00+10юз61496100 3.7 10021279
13:00+15зюз71379100 0.9 10021777
16:00+11юз5119562 2.3 1003829
19:00+12зюз510895 0.9 10031029
22:00+9зюз5129513 1.3 1006607
28 мая, сб
сб2801:00+8зюз4129795 0.0 1007497
04:00+7юз3109895 0.0 1008255
07:00+9ююз41093100 0.0 1008372
10:00+15ююз61262100 0.0 10071251
13:00+18ююз81660100 0.0 10051914
16:00+15юз61583100 0.4 10051413
19:00+12юз41296100 5.3 1006780
22:00+10юз4119780 5.3 1009532